Regional Weather Roundup
Issued by NWS

Home | Current Version | Previous Version | Text Only | Print | Product List | Glossary Off
Versions: 1 2 3 4 5 6 7 8 9 10 11 12 13 14 15 16 17 18 19 20 21 22 23 24 25 26 27 28 29 30 31 32 33 34 35 36 37 38 39 40 41 42 43 44 45 46 47 48 49 50

330
ASUS43 KMPX 271210
RWRMN
WEATHER ROUNDUP FOR MINNESOTA
NATIONAL WEATHER SERVICE TWIN CITIES/CHANHASSEN MN
700 AM CDT TUE SEP 27 2016


NOTE: "FAIR" INDICATES FEW OR NO CLOUDS BELOW 12,000 FEET WITH NO
SIGNIFICANT WEATHER AND/OR OBSTRUCTIONS TO VISIBILITY. N/A MEANS
CURRENT SKY AND/OR WEATHER CONDITIONS ARE NOT AVAILABLE.

MNZ060>063-068>070-271300-
   Twin Cities Metro

CITY           SKY/WX    TMP DP  RH WIND       PRES   REMARKS
TWIN CITIES    PTCLDY    49  39  68 W14       29.84R
6HR MIN TEMP:  49; 6HR MAX TEMP:  55;

ST PAUL        CLEAR     50  40  68 W14       29.84R
CRYSTAL        CLEAR     50  38  63 W14       29.83S
BLAINE         CLEAR     50  41  71 W14G21    29.82S
LAKEVILLE      CLEAR     45  39  81 W10       29.85S
EDEN PRAIRIE   CLEAR     49  39  68 W9        29.85R
6HR MIN TEMP:  48; 6HR MAX TEMP:  53;

LAKEVILLE      CLEAR     45  39  81 W10       29.85S
SOUTH ST PAUL  CLEAR     50  39  66 W10G16    29.83R
LAKE ELMO      FAIR      50  41  71 W12G18    29.82S
$$
MNZ001>005-007-008-013>017-022>024-027-028-271300-
   Northwest Minnesota

CITY           SKY/WX    TMP DP  RH WIND       PRES   REMARKS
BEMIDJI        MOCLDY    45  41  87 NW15      29.80F
HALLOCK        CLOUDY    45  43  93 NW9       29.88S
ROSEAU         CLOUDY    46  41  81 W10       29.82S
WARROAD        CLOUDY    48  45  87 NW12G17   29.80F
THIEF RVR FALL CLEAR     43  40  89 NW10      29.87S
CROOKSTON      CLEAR     39  37  93 NW9       29.90S
FOSSTON        CLEAR     39  37  93 W7        29.87S
DETROIT LAKES  CLEAR     41  37  87 NW12      29.89F
MOORHEAD       CLEAR     43  36  75 W12       29.93R
PARK RAPIDS    PTCLDY    44  39  82 NW12      29.84S
MAHNOMEN       FAIR      38  37  92 W8        29.88S
$$
MNZ006-009>011-018-025>026-271300-
   North Central Minnesota

CITY           SKY/WX    TMP DP  RH WIND       PRES   REMARKS
BAUDETTE       CLOUDY    49  41  74 NW15G28   29.76R
FLAG ISLAND    CLOUDY    48  45  87 N18       29.76F
INTL FALLS     CLOUDY    47  44  90 NW14      29.70S
6HR MIN TEMP:  47; 6HR MAX TEMP:  50; 6HR PCP:  0.04;

WASKISH        CLOUDY    48  46  93 W13G20    29.78R
BIG FORK       CLOUDY    48  45  87 W8        29.74S
LONGVILLE      CLOUDY    48  43  81 W10G21    29.78F
GRAND RAPIDS   CLOUDY    49  43  80 NW16G24   29.75S
ORR            CLOUDY    46  43  87 NW14G24   29.66S
COOK           CLOUDY    46  45  93 NW12G17   29.68S
WALKER         CLOUDY    45  40  83 W10G17    29.80S
$$
MNZ012-019>021-037-271300-
   Northeast Minnesota

CITY           SKY/WX    TMP DP  RH WIND       PRES   REMARKS
DULUTH         DRIZZLE   48  46  93 NW13      29.68S
6HR MIN TEMP:  48; 6HR MAX TEMP:  52; 6HR PCP: TRACE;

ELY            HVY RAIN  46  45  93 NW5       29.63R
HIBBING        CLOUDY    46  44  93 NW18G25   29.69S
EVELETH        LGT RAIN  47  44  91 NW16      29.69R
DULUTH HARBOR  CLOUDY    54  48  82 W21G28    29.69S
TWO HARBORS    DRIZZLE   52  46  82 W7        29.63S
SILVER BAY     DRIZZLE   48  46  93 W3        29.60R
GRAND MARAIS     N/A     50  44  80 VRB5      29.54R
G MARAIS ARPRT DRIZZLE   43  37  81 NW10G20   29.53S
$$
MNZ029>031-032-039>041-046>048-054>057-064-271300-
   West Central Minnesota

CITY           SKY/WX    TMP DP  RH WIND       PRES   REMARKS
FERGUS FALLS   CLEAR     36  36 100 NW5       29.95S
MORRIS         CLEAR     39  36  87 W9        29.92F
ALEXANDRIA     CLEAR     42  38  85 W13       29.91R
ELBOW LAKE     FAIR      37  35  92 NW7       29.92S
GLENWOOD       CLEAR     39  36  87 W8        29.90F
BENSON         CLEAR     37  34  87 NW5       29.92F
ORTONVILLE     PTCLDY    45  37  76 CALM      29.95S
MADISON          N/A     41  37  87 W7        29.95F
WILLMAR        FAIR      43  37  81 W8        29.93S
$$
MNZ033>034-036-042>043-049>051-058-059-271300-
   Central Minnesota

CITY           SKY/WX    TMP DP  RH WIND       PRES   REMARKS
ST CLOUD       CLEAR     46  40  79 W14       29.84F
6HR MIN TEMP:  45; 6HR MAX TEMP:  50;

SAUK CENTRE    FAIR      43  38  84 W10       29.88F
PAYNESVILLE    CLEAR     44  38  82 W10       29.89F
AITKIN         CLOUDY    50  41  71 W5        29.76S
PINE RIVER     PTCLDY    45  41  87 W6        29.84S
BRAINERD       PTCLDY    47  41  80 W14G21    29.81F
STAPLES        CLEAR     43  39  87 W12       29.84F
LONG PRAIRIE   FAIR      43  39  87 SW7       29.87F
LITTLE FALLS   CLEAR     45  37  76 NW5       29.85S
LITCHFIELD     CLEAR     46  43  87 W10       29.89S
BUFFALO        CLEAR     48  40  74 W10       29.87S
MAPLE LAKE     CLEAR     48  42  79 W9        29.87S
HUTCHINSON     CLEAR     43  39  87 W9        29.90S
$$
MNZ037-044-045-052-053-271300-
   East Central Minnesota

CITY           SKY/WX    TMP DP  RH WIND       PRES   REMARKS
PRINCETON      CLEAR     46  43  87 W9        29.83S
MORA           MOCLDY    45  39  81 W10       29.80F
CAMBRIDGE      PTCLDY    50  39  66 W8G16     29.79S
MOOSE LAKE     CLOUDY    50  41  71 W8        29.72S
HINCKLEY       CLOUDY    50  43  76 W10G16    29.76S
CLOQUET        CLOUDY    50  41  71 W14G23    29.71S
MCGREGOR       CLOUDY    50  43  76 W9        29.75S
$$
MNZ071>073-080-081-089-090-097-098-271300-
   Southwest Minnesota

CITY           SKY/WX    TMP DP  RH WIND       PRES   REMARKS
MONTEVIDEO     CLEAR     43  36  75 NW5       29.96S
GRANITE FALLS  CLEAR     41  38  87 W8        29.96S
CANBY          CLEAR     46  38  74 NW9       29.97F
MARSHALL       PTCLDY    42  37  82 W8        29.96S
REDWOOD FALLS  CLEAR     43  36  76 W10       29.93F
OLIVIA         CLEAR     41  36  81 W6        29.92S
PIPESTONE      CLEAR     41  37  87 W6        29.98S
WINDOM         CLEAR     39  37  93 W6        29.96R
WORTHINGTON    CLEAR     41  36  82 W12       29.98S
JACKSON        PTCLDY    45  36  70 W8        29.96S
TRACY          CLEAR     47  38  71 W6        29.96S
SLAYTON        CLEAR     43  32  65 W8        29.98S
$$
MNZ065>067-074>077-082>085-091>093-271300-
   South Central Minnesota

CITY           SKY/WX    TMP DP  RH WIND       PRES   REMARKS
MANKATO        CLEAR     45  38  76 W12       29.91S
NEW ULM        CLEAR     43  37  81 W8        29.92S
ST JAMES       CLEAR     45  37  76 W8        29.94S
FAIRMONT       CLEAR     44  37  76 W8        29.94S
GLENCOE        CLEAR     45  40  85 W8        29.89R
FARIBAULT      CLEAR     46  39  76 W10       29.88S
OWATONNA       CLEAR     43  37  81 W8        29.88S
WASECA         CLEAR     41  37  87 W7        29.91R
ALBERT LEA     CLEAR     46  37  71 W5        29.90S
$$
MNZ078>079-086>088-094>096-271300-
   Southeast Minnesota

CITY           SKY/WX    TMP DP  RH WIND       PRES   REMARKS
ROCHESTER      CLEAR     45  38  76 W12       29.85S
6HR MIN TEMP:  45; 6HR MAX TEMP:  51;

RED WING       CLEAR     48  37  66 W12G17    29.81R
DODGE CENTER   PTCLDY    45  37  76 W14       29.86S
WINONA         CLEAR     50  37  62 NW12G20   29.81R
AUSTIN           N/A     46  37  71 W9G16     29.88R
PRESTON        CLEAR     44  37  74 W12       29.85S
$$
ABBREVIATIONS USED IN REMARKS
   TC - TEMPERATURES IN CELSIUS
  WCI - WIND CHILL INDEX
   HX - HEAT INDEX
  VSB - VISIBILITY
$$




USA.gov is the U.S. government's official web portal to all federal, state and local government web resources and services.